{"data":{"norad_id":48673,"intl_designator":"2021-044AM","name":"STARLINK-2711","alt_names":[],"object_type":"PAYLOAD","status":"ACTIVE","operator":null,"country":"US","launch_date":"2021-05-26","launch_site_code":"AFETR","launch_vehicle":null,"mission":null,"orbit_class":"UNKNOWN","rcs_meters":null,"size_class":null,"mass_kg":null,"dimensions":null,"purposes":["comms"],"wikipedia_slug":null,"has_3d_model":false,"image_url":null,"decayed_at":null,"tle_current":{"epoch":"2026-05-25T04:50:18.121632Z","epoch_age_seconds":71809,"freshness":"FRESH","line1":"1 48673U 21044AM  26145.20159863 -.00000103  00000+0  87647-5 0  9992","line2":"2 48673  53.1578 118.5321 0001200  87.8172 272.2966 15.29350597275527","mean_motion":15.29350597,"eccentricity":0.00012,"inclination_deg":53.1578,"raan_deg":118.5321,"arg_perigee_deg":87.8172,"mean_anomaly_deg":272.2966,"bstar":8.7647e-6,"rev_number":27552,"period_min":94.157611918727,"perigee_km":476.92970069377,"apogee_km":478.57511415155,"semimajor_km":6855.8894074227,"source":"CELESTRAK","updated_at":"2026-05-25T13:38:16.759541Z"}}}